Location: *
(60.1759°S, 155.0663°W)
Time: 14:03:19
(UTC+00:00)

Cosmos 923 Rocket - Pass Details

Date: 17 September 2019
Orbit: 759 x 785 km, 74.0° (Epoch: 17 October)

Event Time Altitude Azimuth Distance (km) Brightness Sun altitude
Rises 13:18:37 0° 213° (SSW) 3,278 7.3 -22.3°
Reaches altitude 10° 13:21:02 10° 217° (SW) 2,349 6.5 -22.1°
Maximum altitude 13:26:15 57° 294° (WNW) 921 4.0 -21.5°
Enters shadow 13:28:37 31° 358° (N) 1,343 4.9 -21.3°
